Total_Precipitation_Accumulation
0.69 0.68 0.69 0.67 0.66 0.59 0.50 0.45 0.44 0.48 0.52 0.55 0.56 0.59 0.62 0.64 0.68 0.77 0.88 1.07 1.18 1.20 1.22 1.28 1.29 1.28 1.27 1.25 1.31 1.43 1.55 1.54 1.32 1.12 1.16 1.18 1.14 1.02 0.96 0.88 0.75 0.67 0.55
0.82 0.90 0.92 0.84 0.75 0.65 0.51 0.44 0.44 0.45 0.48 0.49 0.48 0.48 0.48 0.52 0.60 0.69 0.80 0.91 1.00 1.02 1.02 1.03 0.99 0.98 1.01 1.00 1.08 1.15 1.25 1.42 1.39 1.26 1.33 1.38 1.36 1.27 1.20 1.12 0.93 0.72 0.61
0.83 1.09 1.20 1.11 0.96 0.77 0.57 0.42 0.38 0.37 0.40 0.41 0.41 0.43 0.49 0.62 0.71 0.76 0.79 0.81 0.83 0.86 0.93 0.98 0.92 0.87 0.87 0.90 0.93 0.91 0.96 1.13 1.25 1.28 1.33 1.43 1.44 1.43 1.30 1.16 1.08 0.96 0.74
0.74 0.91 0.98 0.89 0.79 0.68 0.50 0.36 0.30 0.31 0.35 0.38 0.42 0.47 0.54 0.62 0.71 0.76 0.77 0.75 0.70 0.65 0.69 0.75 0.76 0.74 0.73 0.80 0.83 0.84 0.87 1.00 1.14 1.23 1.31 1.48 1.50 1.44 1.39 1.24 1.22 1.12 1.00
0.50 0.56 0.62 0.56 0.47 0.43 0.40 0.36 0.33 0.33 0.35 0.40 0.45 0.50 0.52 0.53 0.53 0.51 0.51 0.50 0.48 0.45 0.43 0.46 0.52 0.57 0.59 0.62 0.64 0.76 0.84 0.90 0.97 1.04 1.11 1.31 1.53 1.58 1.40 1.30 1.36 1.35 1.22
0.36 0.41 0.49 0.51 0.44 0.37 0.34 0.33 0.32 0.33 0.39 0.44 0.47 0.52 0.51 0.41 0.45 0.37 0.28 0.28 0.34 0.37 0.41 0.43 0.43 0.43 0.45 0.46 0.46 0.54 0.68 0.77 0.82 0.90 0.98 1.14 1.37 1.54 1.59 1.54 1.47 1.39 1.36
0.42 0.48 0.54 0.55 0.51 0.44 0.38 0.39 0.39 0.41 0.44 0.46 0.45 0.44 0.44 0.47 0.43 0.34 0.23 0.21 0.26 0.29 0.35 0.39 0.33 0.31 0.37 0.38 0.40 0.39 0.41 0.50 0.62 0.77 0.86 0.92 1.07 1.30 1.50 1.49 1.55 1.58 1.57
0.49 0.57 0.66 0.69 0.61 0.56 0.56 0.58 0.59 0.59 0.57 0.55 0.50 0.47 0.50 0.48 0.42 0.32 0.25 0.22 0.27 0.30 0.33 0.36 0.37 0.34 0.33 0.39 0.44 0.42 0.39 0.38 0.42 0.51 0.63 0.79 0.98 1.22 1.49 1.49 1.49 1.58 1.65
0.60 0.69 0.76 0.81 0.80 0.78 0.78 0.77 0.79 0.76 0.67 0.62 0.57 0.59 0.59 0.58 0.50 0.36 0.30 0.29 0.35 0.37 0.38 0.38 0.38 0.37 0.36 0.33 0.39 0.45 0.47 0.47 0.43 0.45 0.50 0.68 0.90 1.03 1.26 1.39 1.36 1.36 1.30
0.74 0.88 1.00 1.08 1.09 1.08 1.09 1.06 0.99 0.94 0.83 0.77 0.73 0.75 0.77 0.82 0.81 0.61 0.51 0.48 0.50 0.50 0.57 0.54 0.44 0.39 0.37 0.35 0.37 0.44 0.45 0.47 0.51 0.50 0.48 0.53 0.65 0.83 0.98 1.12 1.22 1.26 1.15
0.83 0.96 1.14 1.22 1.27 1.30 1.36 1.31 1.24 1.16 1.11 1.06 0.99 0.97 1.00 1.04 1.06 0.83 0.69 0.63 0.66 0.72 0.75 0.67 0.62 0.51 0.44 0.43 0.42 0.45 0.43 0.46 0.55 0.59 0.60 0.63 0.69 0.79 0.88 0.95 1.11 1.22 1.19
0.88 0.98 1.08 1.15 1.15 1.20 1.37 1.41 1.41 1.38 1.30 1.25 1.21 1.08 1.05 1.06 0.99 0.84 0.67 0.59 0.69 0.86 0.94 0.88 0.80 0.65 0.50 0.44 0.39 0.37 0.35 0.34 0.42 0.53 0.58 0.61 0.64 0.67 0.75 0.90 1.05 1.12 1.17
0.94 1.06 1.14 1.17 1.21 1.29 1.34 1.36 1.39 1.43 1.42 1.33 1.30 1.20 1.11 1.13 1.08 0.83 0.67 0.61 0.64 0.78 0.93 0.95 0.82 0.66 0.55 0.47 0.41 0.39 0.37 0.36 0.42 0.49 0.52 0.54 0.57 0.63 0.77 0.93 1.12 1.20 1.17
1.07 1.13 1.21 1.28 1.27 1.28 1.38 1.45 1.48 1.53 1.57 1.51 1.44 1.37 1.29 1.23 1.14 0.99 0.83 0.75 0.77 0.85 0.95 0.99 0.88 0.80 0.69 0.65 0.57 0.49 0.46 0.49 0.52 0.55 0.56 0.61 0.68 0.76 0.83 0.91 1.02 1.13 1.17
1.07 1.10 1.13 1.19 1.25 1.32 1.38 1.43 1.39 1.44 1.41 1.38 1.33 1.32 1.32 1.27 1.11 1.02 0.95 0.87 0.92 1.00 1.05 1.14 1.07 1.01 0.94 0.86 0.80 0.76 0.75 0.75 0.69 0.68 0.75 0.78 0.81 0.89 0.92 0.95 1.07 1.09 1.03
1.18 1.18 1.12 1.10 1.17 1.23 1.29 1.29 1.21 1.12 1.08 1.03 1.02 1.02 1.02 0.97 0.89 0.81 0.79 0.79 0.83 0.93 0.98 1.13 1.19 1.17 1.15 1.10 1.00 0.93 0.90 0.87 0.83 0.85 0.89 0.92 0.92 0.94 0.99 0.98 1.04 1.06 0.98
1.12 1.13 1.09 1.07 1.13 1.16 1.20 1.24 1.26 1.16 1.03 0.94 0.89 0.86 0.87 0.83 0.79 0.74 0.74 0.78 0.79 0.85 0.93 1.10 1.17 1.15 1.14 1.10 1.00 0.90 0.86 0.88 0.94 0.96 0.97 0.97 1.02 1.03 1.07 1.06 1.02 1.05 1.01
0.99 1.02 1.04 1.07 1.11 1.16 1.19 1.22 1.28 1.35 1.32 1.16 0.97 0.87 0.78 0.73 0.66 0.64 0.65 0.66 0.67 0.72 0.86 1.02 1.07 1.03 1.02 0.99 0.96 0.90 0.88 0.94 1.02 1.01 1.00 1.01 1.03 1.04 1.07 1.09 1.05 1.03 1.02
0.90 0.91 0.91 0.95 0.98 1.03 1.05 1.10 1.17 1.23 1.26 1.17 1.03 0.88 0.74 0.66 0.58 0.55 0.54 0.52 0.58 0.69 0.84 0.91 0.95 0.96 0.90 0.88 0.89 0.86 0.85 0.89 0.98 1.04 1.03 1.04 1.05 1.08 1.07 1.04 1.08 1.06 0.98
0.82 0.80 0.80 0.83 0.82 0.81 0.82 0.89 0.97 1.04 1.08 1.03 0.95 0.84 0.72 0.68 0.60 0.55 0.51 0.50 0.58 0.68 0.78 0.85 0.89 0.87 0.82 0.84 0.86 0.85 0.84 0.91 1.02 1.06 1.04 1.06 1.11 1.10 1.03 1.00 1.02 1.05 0.97
0.80 0.73 0.69 0.70 0.70 0.71 0.76 0.82 0.86 0.89 0.94 0.90 0.82 0.69 0.61 0.58 0.53 0.50 0.51 0.55 0.65 0.75 0.82 0.86 0.86 0.83 0.81 0.84 0.88 0.91 0.89 0.95 1.02 1.04 1.05 1.08 1.13 1.12 1.06 1.02 1.00 1.01 1.00
0.80 0.70 0.63 0.60 0.63 0.65 0.66 0.73 0.79 0.80 0.78 0.75 0.69 0.56 0.53 0.52 0.46 0.44 0.47 0.53 0.60 0.71 0.73 0.73 0.76 0.77 0.75 0.76 0.82 0.89 0.93 0.98 1.05 1.06 1.04 1.06 1.09 1.09 1.11 1.08 1.07 1.04 1.04
0.83 0.70 0.61 0.56 0.57 0.57 0.59 0.68 0.75 0.73 0.66 0.61 0.57 0.54 0.54 0.56 0.48 0.45 0.50 0.58 0.65 0.66 0.64 0.64 0.68 0.72 0.72 0.73 0.73 0.80 0.87 0.92 0.97 0.97 1.02 1.05 1.04 1.03 1.04 1.00 1.00 1.01 1.01
0.81 0.72 0.63 0.53 0.54 0.58 0.61 0.66 0.69 0.68 0.60 0.55 0.52 0.51 0.52 0.56 0.53 0.52 0.57 0.68 0.67 0.60 0.57 0.60 0.63 0.65 0.68 0.72 0.71 0.72 0.75 0.80 0.79 0.81 0.84 0.90 0.92 0.94 0.97 0.95 0.95 0.94 0.96
0.80 0.72 0.62 0.52 0.50 0.53 0.57 0.62 0.65 0.66 0.62 0.55 0.53 0.53 0.55 0.59 0.56 0.56 0.59 0.61 0.58 0.53 0.49 0.53 0.58 0.60 0.62 0.64 0.66 0.66 0.66 0.63 0.64 0.69 0.72 0.76 0.82 0.89 0.95 0.95 0.95 0.94 0.93
0.72 0.66 0.60 0.53 0.46 0.47 0.54 0.61 0.62 0.62 0.60 0.56 0.55 0.56 0.55 0.54 0.51 0.47 0.45 0.45 0.45 0.45 0.46 0.50 0.57 0.59 0.62 0.63 0.56 0.54 0.51 0.47 0.50 0.58 0.62 0.69 0.80 0.87 0.91 0.96 0.94 0.95 0.93